{"data":{"norad_id":53867,"epoch":"2026-09-20T22:00:03.000096Z","epoch_age_seconds":47790,"freshness":"FRESH","line1":"1 53867U 22114BB  26263.91670139  .00117509  00000+0  30265-2 0  9994","line2":"2 53867  53.1862  91.9982 0001507 101.8936 146.3387 15.38341427  5707","mean_motion":15.38341427,"eccentricity":0.0001507,"inclination_deg":53.1862,"raan_deg":91.9982,"arg_perigee_deg":101.8936,"mean_anomaly_deg":146.3387,"bstar":0.0030265,"rev_number":570,"period_min":93.607308151885,"perigee_km":449.98435493037,"apogee_km":452.04266089345,"semimajor_km":6829.1505079119,"source":"CELESTRAK","updated_at":"2026-09-21T09:00:33.026317Z"}}